HULIANWANG DIGUI 6B

Last updated on Thu Aug 14 2025 00:02:07 GMT+0000 (Coordinated Universal Time)

1 65044U 25162B 25224.73686950 .00000012 00000+0 10276-3 0 9995 2 65044 50.0025 320.4432 0007119 306.4527 53.5721 14.04166624 1891
UTC large
Height (km)
Speed (km/s)
/
Latitude / Longitude
Inclination (degrees)
Orbital Period (minutes)
Azimuth
Elevation
Range (km)
Doppler Factor

Next 0 passes for location: London (51.5072 / 0.1276)

Sorry there are no passes over London.